| time (UTC) | temp F | wind direction | speed knots | gust knots | rain 1hr in | rain 24hr in | rain mn in | humidity % | barometer mb |
| 20260505074006 | 52 | 1 | 1.7 | 8.7 | 0.00 | 0.00 | 0.00 | 87 | 1008.1 |
| 20260505073505 | 52 | 23 | 2.6 | 6.1 | 0.00 | 0.00 | 0.00 | 87 | 1008.0 |
| 20260505073008 | 52 | 305 | 2.6 | 7.8 | 0.00 | 0.00 | 0.00 | 87 | 1008.0 |
| 20260505072505 | 52 | 301 | 3.5 | 7.8 | 0.00 | 0.00 | 0.00 | 87 | 1007.9 |
| 20260505072002 | 52 | 11 | 1.7 | 4.3 | 0.00 | 0.00 | 0.00 | 87 | 1007.9 |
| 20260505071506 | 52 | 316 | 0.9 | 2.6 | 0.00 | 0.00 | 0.00 | 86 | 1007.8 |
| 20260505071102 | 52 | 343 | 0.9 | 3.5 | 0.00 | 0.00 | 0.00 | 86 | 1007.7 |
| 20260505070506 | 52 | 23 | 0.0 | 3.5 | 0.00 | 0.00 | 0.00 | 86 | 1007.7 |
| 20260505070006 | 52 | 18 | 0.9 | 3.5 | 0.00 | 0.00 | 0.00 | 86 | 1007.7 |
| 20260505065505 | 52 | 349 | 0.9 | 2.6 | 0.00 | 0.00 | 0.00 | 86 | 1007.6 |
| 20260505065004 | 52 | 18 | 0.9 | 3.5 | 0.00 | 0.00 | 0.00 | 85 | 1007.6 |
| 20260505064511 | 52 | 335 | 0.0 | 4.3 | 0.00 | 0.00 | 0.00 | 85 | 1007.6 |
| 20260505064002 | 52 | 328 | 1.7 | 4.3 | 0.00 | 0.00 | 0.00 | 86 | 1007.5 |
| 20260505063504 | 52 | 354 | 0.0 | 0.0 | 0.00 | 0.00 | 0.00 | 86 | 1007.4 |
| 20260505063001 | 52 | 352 | 0.0 | 0.9 | 0.00 | 0.00 | 0.00 | 86 | 1007.3 |
| 20260505062601 | 52 | 351 | 0.0 | 0.9 | 0.00 | 0.00 | 0.00 | 86 | 1007.3 |
| 20260505062103 | 52 | 351 | 0.0 | 0.0 | 0.00 | 0.00 | 0.00 | 86 | 1007.2 |
| 20260505061602 | 52 | 351 | 0.0 | 0.9 | 0.00 | 0.00 | 0.00 | 86 | 1007.2 |
| 20260505061059 | 53 | 352 | 0.0 | 0.0 | 0.00 | 0.00 | 0.00 | 85 | 1007.2 |
| 20260505060526 | 53 | 352 | 0.0 | 0.0 | 0.00 | 0.00 | 0.00 | 85 | 1007.2 |
| 20260505060021 | 53 | 352 | 0.0 | 0.0 | 0.00 | 0.00 | 0.00 | 84 | 1007.2 |
| 20260505055521 | 53 | 352 | 0.0 | 0.0 | 0.00 | 0.00 | 0.00 | 84 | 1007.0 |
| 20260505055022 | 53 | 353 | 0.0 | 0.0 | 0.00 | 0.00 | 0.00 | 84 | 1006.9 |
| 20260505054532 | 53 | 352 | 0.0 | 0.0 | 0.00 | 0.00 | 0.00 | 84 | 1007.0 |
| 20260505054019 | 53 | 352 | 0.0 | 0.0 | 0.00 | 0.00 | 0.00 | 84 | 1006.9 |
| 20260505053518 | 53 | 352 | 0.0 | 0.0 | 0.00 | 0.00 | 0.00 | 84 | 1006.9 |
| 20260505053027 | 53 | 352 | 0.0 | 0.0 | 0.00 | 0.00 | 0.00 | 84 | 1006.8 |
| 20260505052519 | 53 | 352 | 0.0 | 0.9 | 0.00 | 0.00 | 0.00 | 84 | 1006.8 |
| 20260505052017 | 54 | 352 | 0.0 | 0.9 | 0.00 | 0.00 | 0.00 | 84 | 1006.7 |
| 20260505051531 | 54 | 352 | 0.0 | 0.9 | 0.00 | 0.00 | 0.00 | 84 | 1006.7 |
| 20260505051116 | 54 | 352 | 0.0 | 0.0 | 0.00 | 0.00 | 0.00 | 84 | 1006.6 |
| 20260505050547 | 54 | 352 | 0.0 | 0.9 | 0.00 | 0.00 | 0.00 | 84 | 1006.5 |
| 20260505041539 | 56 | 352 | 0.0 | 0.9 | 0.00 | 0.00 | 0.00 | 80 | 1006.2 |
| 20260505041138 | 56 | 352 | 0.9 | 2.6 | 0.00 | 0.00 | 0.00 | 79 | 1006.0 |
| 20260505040518 | 56 | 352 | 0.9 | 2.6 | 0.00 | 0.00 | 0.00 | 79 | 1006.0 |
| 20260505040025 | 56 | 347 | 0.0 | 2.6 | 0.00 | 0.00 | 0.00 | 79 | 1005.9 |
| 20260505035513 | 56 | 13 | 0.0 | 0.0 | 0.00 | 0.00 | 0.00 | 79 | 1005.9 |
| 20260505035014 | 56 | 352 | 0.0 | 0.0 | 0.00 | 0.00 | 0.00 | 79 | 1005.8 |
| 20260505034512 | 57 | 352 | 0.0 | 0.0 | 0.00 | 0.00 | 0.00 | 78 | 1005.8 |
| 20260505034016 | 57 | 345 | 0.0 | 0.0 | 0.00 | 0.00 | 0.00 | 78 | 1005.8 |
| 20260505033611 | 57 | 340 | 0.0 | 0.0 | 0.00 | 0.00 | 0.00 | 77 | 1005.7 |
| 20260505033050 | 58 | 340 | 0.0 | 0.0 | 0.00 | 0.00 | 0.00 | 77 | 1005.7 |
| 20260505032549 | 58 | 348 | 0.0 | 0.0 | 0.00 | 0.00 | 0.00 | 75 | 1005.6 |
| 20260505032048 | 58 | 348 | 0.0 | 0.0 | 0.00 | 0.00 | 0.00 | 75 | 1005.6 |
| 20260505031546 | 58 | 348 | 0.0 | 1.7 | 0.00 | 0.00 | 0.00 | 74 | 1005.6 |
| 20260505031050 | 59 | 330 | 0.0 | 3.5 | 0.00 | 0.00 | 0.00 | 74 | 1005.5 |
| 20260505030548 | 59 | 344 | 0.9 | 3.5 | 0.00 | 0.00 | 0.00 | 74 | 1005.5 |
| 20260505030047 | 59 | 18 | 0.9 | 1.7 | 0.00 | 0.00 | 0.00 | 74 | 1005.4 |
| 20260505025546 | 59 | 4 | 1.7 | 1.7 | 0.00 | 0.00 | 0.00 | 73 | 1005.4 |
| 20260505025044 | 59 | 18 | 0.0 | 0.0 | 0.00 | 0.00 | 0.00 | 73 | 1005.3 |
| 20260505024545 | 59 | 10 | 0.0 | 0.0 | 0.00 | 0.00 | 0.00 | 73 | 1005.4 |
| 20260505024042 | 60 | 33 | 0.0 | 0.0 | 0.00 | 0.00 | 0.00 | 74 | 1005.4 |
| 20260505023108 | 60 | 32 | 0.0 | 0.0 | 0.00 | 0.00 | 0.00 | 74 | 1005.4 |
| 20260505022558 | 60 | 321 | 0.0 | 0.0 | 0.00 | 0.00 | 0.00 | 74 | 1005.4 |
| 20260505022057 | 60 | 23 | 0.0 | 0.0 | 0.00 | 0.00 | 0.00 | 74 | 1005.4 |
| 20260505021600 | 60 | 23 | 0.0 | 0.0 | 0.00 | 0.00 | 0.00 | 73 | 1005.5 |
| 20260505021056 | 60 | 23 | 0.0 | 0.0 | 0.00 | 0.00 | 0.00 | 73 | 1005.6 |
| 20260505020554 | 60 | 20 | 0.0 | 0.0 | 0.00 | 0.00 | 0.00 | 73 | 1005.5 |
| 20260505020057 | 60 | 345 | 0.0 | 0.0 | 0.00 | 0.00 | 0.00 | 72 | 1005.6 |
| 20260505015553 | 60 | 354 | 0.0 | 0.0 | 0.00 | 0.00 | 0.00 | 72 | 1005.6 |
| 20260505015057 | 60 | 311 | 0.0 | 0.0 | 0.00 | 0.00 | 0.00 | 72 | 1005.6 |
| 20260505014552 | 61 | 43 | 0.0 | 0.0 | 0.00 | 0.00 | 0.00 | 71 | 1005.7 |
| 20260505014050 | 61 | 32 | 0.0 | 0.0 | 0.00 | 0.00 | 0.00 | 69 | 1005.7 |
| 20260505013027 | 63 | 26 | 0.0 | 0.9 | 0.00 | 0.00 | 0.00 | 66 | 1005.8 |
| 20260505012529 | 64 | 41 | 0.0 | 0.0 | 0.00 | 0.00 | 0.00 | 63 | 1005.8 |
| 20260505012024 | 66 | 32 | 0.0 | 0.0 | 0.00 | 0.00 | 0.00 | 60 | 1005.7 |
| 20260505011523 | 66 | 41 | 0.0 | 0.0 | 0.00 | 0.00 | 0.00 | 57 | 1005.7 |
| 20260505011021 | 67 | 73 | 0.0 | 0.0 | 0.00 | 0.00 | 0.00 | 55 | 1005.8 |
| 20260505010521 | 68 | 65 | 0.0 | 2.6 | 0.00 | 0.00 | 0.00 | 52 | 1005.8 |
| 20260505010021 | 68 | 53 | 0.0 | 2.6 | 0.00 | 0.00 | 0.00 | 51 | 1005.8 |
| 20260505005523 | 69 | 36 | 0.0 | 0.9 | 0.00 | 0.00 | 0.00 | 49 | 1005.8 |
| 20260505005021 | 69 | 56 | 0.0 | 1.7 | 0.00 | 0.00 | 0.00 | 49 | 1005.8 |
| 20260505004521 | 70 | 44 | 0.0 | 3.5 | 0.00 | 0.00 | 0.00 | 49 | 1005.9 |
| 20260505004021 | 70 | 50 | 0.9 | 3.5 | 0.00 | 0.00 | 0.00 | 48 | 1005.9 |
| 20260505003012 | 70 | 34 | 0.0 | 3.5 | 0.00 | 0.00 | 0.00 | 49 | 1005.9 |
| 20260505002511 | 70 | 14 | 0.0 | 3.5 | 0.00 | 0.00 | 0.00 | 48 | 1005.9 |
| 20260505002011 | 71 | 44 | 0.9 | 3.5 | 0.00 | 0.00 | 0.00 | 48 | 1006.0 |
| 20260505001511 | 71 | 26 | 0.0 | 3.5 | 0.00 | 0.00 | 0.00 | 48 | 1006.0 |
| 20260505001014 | 71 | 38 | 0.9 | 2.6 | 0.00 | 0.00 | 0.00 | 49 | 1006.0 |
| 20260505000512 | 71 | 36 | 0.0 | 1.7 | 0.00 | 0.00 | 0.00 | 50 | 1006.0 |
| 20260505000010 | 71 | 23 | 0.0 | 4.3 | 0.00 | 0.00 | 0.00 | 50 | 1006.0 |
| 20260504235510 | 72 | 74 | 1.7 | 4.3 | 0.00 | 0.00 | 0.00 | 48 | 1006.0 |
| 20260504235010 | 72 | 75 | 0.9 | 4.3 | 0.00 | 0.00 | 0.00 | 47 | 1006.0 |
| 20260504234509 | 73 | 61 | 0.0 | 2.6 | 0.00 | 0.00 | 0.00 | 47 | 1006.1 |
| 20260504234009 | 74 | 41 | 0.0 | 2.6 | 0.00 | 0.00 | 0.00 | 47 | 1006.1 |
| 20260504233011 | 75 | 20 | 0.0 | 1.7 | 0.00 | 0.00 | 0.00 | 44 | 1006.1 |
| 20260504232509 | 76 | 18 | 0.0 | 0.9 | 0.00 | 0.00 | 0.00 | 45 | 1006.1 |
| 20260504232013 | 76 | 313 | 0.0 | 0.9 | 0.00 | 0.00 | 0.00 | 46 | 1006.2 |
| 20260504231508 | 75 | 49 | 0.0 | 2.6 | 0.00 | 0.00 | 0.00 | 45 | 1006.2 |
| 20260504231009 | 75 | 51 | 0.9 | 2.6 | 0.00 | 0.00 | 0.00 | 45 | 1006.3 |
| 20260504230508 | 76 | 50 | 0.9 | 2.6 | 0.00 | 0.00 | 0.00 | 44 | 1006.3 |
| 20260504230009 | 75 | 71 | 0.0 | 2.6 | 0.00 | 0.00 | 0.00 | 46 | 1006.4 |
| 20260504225511 | 75 | 58 | 0.9 | 4.3 | 0.00 | 0.00 | 0.00 | 46 | 1006.4 |
| 20260504225009 | 75 | 18 | 0.9 | 4.3 | 0.00 | 0.00 | 0.00 | 45 | 1006.5 |
| 20260504224509 | 76 | 122 | 0.9 | 5.2 | 0.00 | 0.00 | 0.00 | 45 | 1006.5 |
| 20260504224007 | 76 | 102 | 0.0 | 5.2 | 0.00 | 0.00 | 0.00 | 45 | 1006.5 |
| 20260504223008 | 77 | 84 | 0.0 | 1.7 | 0.00 | 0.00 | 0.00 | 46 | 1006.5 |
| 20260504222508 | 77 | 29 | 0.0 | 1.7 | 0.00 | 0.00 | 0.00 | 46 | 1006.5 |
| 20260504222009 | 78 | 29 | 0.0 | 1.7 | 0.00 | 0.00 | 0.00 | 45 | 1006.5 |
| 20260504221511 | 78 | 71 | 0.0 | 2.6 | 0.00 | 0.00 | 0.00 | 45 | 1006.5 |
| 20260504221008 | 77 | 70 | 0.9 | 2.6 | 0.00 | 0.00 | 0.00 | 45 | 1006.6 |
| 20260504220508 | 78 | 76 | 0.0 | 2.6 | 0.00 | 0.00 | 0.00 | 44 | 1006.5 |
| 20260504220008 | 78 | 111 | 0.0 | 2.6 | 0.00 | 0.00 | 0.00 | 41 | 1006.6 |
| 20260504215507 | 79 | 51 | 0.0 | 2.6 | 0.00 | 0.00 | 0.00 | 44 | 1006.6 |
| 20260504215007 | 79 | 120 | 0.0 | 0.9 | 0.00 | 0.00 | 0.00 | 40 | 1006.7 |
| 20260504214508 | 78 | 56 | 0.0 | 2.6 | 0.00 | 0.00 | 0.00 | 42 | 1006.7 |
| 20260504214008 | 78 | 302 | 0.0 | 2.6 | 0.00 | 0.00 | 0.00 | 41 | 1006.7 |
| 20260504213008 | 79 | 321 | 0.0 | 3.5 | 0.00 | 0.00 | 0.00 | 44 | 1006.8 |
| 20260504212507 | 79 | 269 | 0.0 | 1.7 | 0.00 | 0.00 | 0.00 | 43 | 1006.8 |
| 20260504212003 | 78 | 49 | 0.0 | 2.6 | 0.00 | 0.00 | 0.00 | 45 | 1006.8 |
| 20260504211503 | 78 | 102 | 0.0 | 3.5 | 0.00 | 0.00 | 0.00 | 44 | 1006.8 |
| 20260504211003 | 78 | 60 | 0.0 | 3.5 | 0.00 | 0.00 | 0.00 | 44 | 1006.8 |
| 20260504210505 | 77 | 113 | 0.0 | 5.2 | 0.00 | 0.00 | 0.00 | 43 | 1006.8 |
| 20260504210004 | 78 | 128 | 0.9 | 5.2 | 0.00 | 0.00 | 0.00 | 42 | 1006.8 |
| 20260504205503 | 78 | 45 | 0.9 | 2.6 | 0.00 | 0.00 | 0.00 | 42 | 1006.9 |
| 20260504205000 | 77 | 122 | 0.9 | 3.5 | 0.00 | 0.00 | 0.00 | 47 | 1007.0 |
| 20260504204600 | 77 | 107 | 1.7 | 3.5 | 0.00 | 0.00 | 0.00 | 45 | 1007.0 |
| 20260504204100 | 77 | 86 | 0.0 | 3.5 | 0.00 | 0.00 | 0.00 | 46 | 1007.1 |
| 20260504203702 | 76 | 226 | 0.9 | 4.3 | 0.00 | 0.00 | 0.00 | 42 | 1007.1 |
| 20260504203100 | 77 | 22 | 1.7 | 4.3 | 0.00 | 0.00 | 0.00 | 42 | 1007.1 |
| 20260504202558 | 76 | 23 | 0.0 | 3.5 | 0.00 | 0.00 | 0.00 | 44 | 1007.1 |
| 20260504202059 | 75 | 20 | 0.0 | 3.5 | 0.00 | 0.00 | 0.00 | 44 | 1007.2 |
| 20260504201558 | 76 | 20 | 0.0 | 2.6 | 0.00 | 0.00 | 0.00 | 43 | 1007.2 |
| 20260504201056 | 75 | 68 | 0.0 | 1.7 | 0.00 | 0.00 | 0.00 | 46 | 1007.3 |
| 20260504200556 | 74 | 62 | 0.0 | 3.5 | 0.00 | 0.00 | 0.00 | 47 | 1007.3 |
| 20260504200100 | 74 | 129 | 0.0 | 3.5 | 0.00 | 0.00 | 0.00 | 47 | 1007.3 |
| 20260504195555 | 74 | 18 | 0.0 | 0.9 | 0.00 | 0.00 | 0.00 | 46 | 1007.2 |
| 20260504195055 | 74 | 27 | 0.0 | 1.7 | 0.00 | 0.00 | 0.00 | 47 | 1007.3 |
| 20260504194556 | 74 | 41 | 0.0 | 1.7 | 0.00 | 0.00 | 0.00 | 46 | 1007.2 |
| 20260504194055 | 74 | 55 | 0.0 | 1.7 | 0.00 | 0.00 | 0.00 | 46 | 1007.2 |
| 20260504193654 | 72 | 49 | 0.0 | 0.0 | 0.00 | 0.00 | 0.00 | 50 | 1007.2 |
| 20260504193055 | 72 | 315 | 0.0 | 0.0 | 0.00 | 0.00 | 0.00 | 49 | 1007.2 |
| 20260504192555 | 72 | 71 | 0.0 | 0.0 | 0.00 | 0.00 | 0.00 | 49 | 1007.2 |
| 20260504192055 | 72 | 146 | 0.0 | 2.6 | 0.00 | 0.00 | 0.00 | 51 | 1007.2 |
| 20260504191558 | 71 | 274 | 0.9 | 5.2 | 0.00 | 0.00 | 0.00 | 51 | 1007.3 |
| 20260504191054 | 71 | 44 | 0.9 | 6.1 | 0.00 | 0.00 | 0.00 | 53 | 1007.3 |
| 20260504190554 | 71 | 136 | 2.6 | 6.1 | 0.00 | 0.00 | 0.00 | 52 | 1007.3 |
| 20260504190108 | 72 | 101 | 0.9 | 4.3 | 0.00 | 0.00 | 0.00 | 50 | 1007.3 |
| 20260504185553 | 72 | 350 | 0.0 | 2.6 | 0.00 | 0.00 | 0.00 | 50 | 1007.4 |
| 20260504185052 | 72 | 32 | 0.0 | 0.0 | 0.00 | 0.00 | 0.00 | 51 | 1007.4 |
| 20260504184609 | 71 | 39 | 0.0 | 0.0 | 0.00 | 0.00 | 0.00 | 54 | 1007.4 |
| 20260504184049 | 69 | 68 | 0.0 | 0.9 | 0.00 | 0.00 | 0.00 | 55 | 1007.4 |
| 20260504183648 | 69 | 23 | 0.9 | 3.5 | 0.00 | 0.00 | 0.00 | 56 | 1007.4 |
| 20260504183053 | 69 | 113 | 1.7 | 3.5 | 0.00 | 0.00 | 0.00 | 55 | 1007.5 |
| 20260504182550 | 68 | 124 | 0.0 | 3.5 | 0.00 | 0.00 | 0.00 | 58 | 1007.5 |
| 20260504182048 | 68 | 142 | 0.0 | 4.3 | 0.00 | 0.00 | 0.00 | 59 | 1007.5 |
| 20260504181549 | 67 | 113 | 1.7 | 4.3 | 0.00 | 0.00 | 0.00 | 57 | 1007.5 |
| 20260504181047 | 67 | 128 | 0.0 | 5.2 | 0.00 | 0.00 | 0.00 | 57 | 1007.5 |
| 20260504180547 | 67 | 210 | 0.0 | 5.2 | 0.00 | 0.00 | 0.00 | 57 | 1007.5 |
| 20260504180048 | 66 | 120 | 0.0 | 4.3 | 0.00 | 0.00 | 0.00 | 58 | 1007.5 |
| 20260504175546 | 66 | 122 | 0.0 | 5.2 | 0.00 | 0.00 | 0.00 | 61 | 1007.5 |
| 20260504175047 | 65 | 114 | 0.0 | 5.2 | 0.00 | 0.00 | 0.00 | 61 | 1007.6 |
| 20260504174547 | 65 | 131 | 0.9 | 4.3 | 0.00 | 0.00 | 0.00 | 58 | 1007.6 |
| 20260504174046 | 65 | 145 | 0.9 | 4.3 | 0.00 | 0.00 | 0.00 | 59 | 1007.6 |
| 20260504173647 | 66 | 131 | 1.7 | 4.3 | 0.00 | 0.00 | 0.00 | 58 | 1007.5 |
| 20260504173055 | 66 | 126 | 1.7 | 5.2 | 0.00 | 0.00 | 0.00 | 58 | 1007.6 |
| 20260504172551 | 66 | 187 | 0.0 | 6.1 | 0.00 | 0.00 | 0.00 | 60 | 1007.6 |
| 20260504172050 | 67 | 125 | 0.9 | 6.1 | 0.00 | 0.00 | 0.00 | 56 | 1007.6 |
| 20260504171549 | 67 | 102 | 0.0 | 1.7 | 0.00 | 0.00 | 0.00 | 59 | 1007.6 |
| 20260504171050 | 67 | 135 | 0.0 | 2.6 | 0.00 | 0.00 | 0.00 | 57 | 1007.5 |
| 20260504170549 | 67 | 148 | 0.0 | 2.6 | 0.00 | 0.00 | 0.00 | 58 | 1007.4 |
| 20260504151035 | 57 | 50 | 0.0 | 0.0 | 0.00 | 0.00 | 0.00 | 84 | 1007.4 |
| 20260504150534 | 56 | 49 | 0.0 | 0.0 | 0.00 | 0.00 | 0.00 | 84 | 1007.4 |
| 20260504141033 | 52 | 46 | 0.0 | 0.0 | 0.00 | 0.00 | 0.00 | 90 | 1007.0 |
| 20260504140532 | 52 | 17 | 0.0 | 0.0 | 0.00 | 0.00 | 0.00 | 91 | 1006.9 |
| 20260504130520 | 0 | 0.0 | 0.0 | 0.00 | 0.00 | 0.00 | 1006.3 | ||
| 20260504110559 | 54 | 354 | 0.0 | 0.0 | 0.00 | 0.00 | 0.00 | 81 | 1006.3 |
| 20260504100557 | 55 | 328 | 0.0 | 0.0 | 0.00 | 0.00 | 0.00 | 76 | 1006.2 |
| 20260504081550 | 54 | 65 | 0.0 | 0.0 | 0.00 | 0.00 | 0.00 | 76 | 1006.3 |
| 20260504081051 | 54 | 65 | 0.0 | 0.0 | 0.00 | 0.00 | 0.00 | 72 | 1006.3 |
| 20260504080548 | 54 | 65 | 0.0 | 0.0 | 0.00 | 0.00 | 0.00 | 74 | 1006.3 |